Regional Weather Roundup
Issued by NWS

Home | Current Version | Previous Version | Text Only | Print | Product List | Glossary On
Versions: 1 2 3 4 5 6 7 8 9 10 11 12 13 14 15 16 17 18 19 20 21 22 23 24 25 26 27 28 29 30 31 32 33 34 35 36 37 38 39 40 41 42 43 44 45 46 47 48 49 50
000
ASUS43 KBIS 201110
RWRND
NORTH DAKOTA REGIONAL WEATHER ROUNDUP
NATIONAL WEATHER SERVICE EASTERN NORTH DAKOTA/GRAND FORKS ND
600 AM CDT FRI APR 20 2018

  NOTE: "FAIR" INDICATES FEW OR NO CLOUDS BELOW 12,000 FEET WITH NO
  SIGNIFICANT WEATHER AND/OR OBSTRUCTIONS TO VISIBILITY.

NDZ001>003-009>011-017-201200-
...NORTHWEST NORTH DAKOTA...

CITY           SKY/WX    TMP DP  RH WIND       PRES   REMARKS
WILLISTON      FAIR      32  29  88 N6        30.23F WCI  26
MINOT          FAIR      32  28  85 CALM      30.29S
MINOT AFB      CLEAR     30  30 100 SE5       30.28F FOG     WCI  25
$$

NDZ018>021-031>035-040>046-201200-
...SOUTHWEST NORTH DAKOTA...

CITY           SKY/WX    TMP DP  RH WIND       PRES   REMARKS
BISMARCK       FAIR      29  22  75 E6        30.32F WCI  23
DICKINSON      FAIR      31  25  78 SE14      30.20S WCI  21
GARRISON         N/A     31  27  85 E5        30.29F WCI  26
HETTINGER      FAIR      31  25  78 SE10      30.21S WCI  22
$$

NDZ004>008-012>016-024-026-027-054-201200-
...NORTHEAST NORTH DAKOTA...

CITY           SKY/WX    TMP DP  RH WIND       PRES   REMARKS
GRAND FORKS    MOCLDY    32  30  92 SE5       30.38F WCI  27
GRAND FORKS AF FAIR      36  29  77 CALM      30.38S
DEVILS LAKE    FAIR      32  29  88 S5        30.37R WCI  27
$$

NDZ022-023-025-028>030-036>039-047>053-201200-
...SOUTHEAST NORTH DAKOTA...

CITY           SKY/WX    TMP DP  RH WIND       PRES   REMARKS
JAMESTOWN      FAIR      30  25  81 SE6       30.36S WCI  24
FARGO          FAIR      32  29  88 S3        30.41S
WAHPETON       FAIR      32  30  93 SE5       30.44R WCI  27
$$




USA.gov is the U.S. government's official web portal to all federal, state and local government web resources and services.